Time,TemperatureF,DewpointF,PressureIn,WindDirection,WindDirectionDegrees,WindSpeedMPH,WindSpeedGustMPH,Humidity,HourlyPrecipIn,Conditions,Clouds,dailyrainin,SoftwareType,DateUTC
2013-05-14 00:00:00,48.2,32.0,30.01,NW,318,21.9,-999.9,54,-99.99,,,-99.99,,2013-05-14 04:00:00,
2013-05-14 00:02:00,48.2,32.0,30.01,NW,315,13.8,-999.9,54,-99.99,,,-99.99,,2013-05-14 04:02:00,
2013-05-14 00:04:00,48.2,32.0,30.01,NW,315,13.8,-999.9,54,-99.99,,,-99.99,,2013-05-14 04:04:00,
2013-05-14 00:06:00,48.2,32.0,30.01,NW,315,13.8,-999.9,54,-99.99,,,-99.99,,2013-05-14 04:06:00,
2013-05-14 00:12:00,48.2,33.8,30.02,NW,325,18.4,-999.9,58,-99.99,,,-99.99,,2013-05-14 04:12:00,
2013-05-14 00:16:00,48.2,33.8,30.02,NW,325,18.4,-999.9,58,-99.99,,,-99.99,,2013-05-14 04:16:00,
2013-05-14 00:20:00,48.2,33.8,30.02,NW,325,18.4,-999.9,58,-99.99,,,-99.99,,2013-05-14 04:20:00,
2013-05-14 00:26:00,48.2,33.8,30.02,NNW,335,11.5,-999.9,58,-99.99,,,-99.99,,2013-05-14 04:26:00,
2013-05-14 00:32:00,46.4,32.0,30.02,NNW,332,17.3,-999.9,57,-99.99,,,-99.99,,2013-05-14 04:32:00,
2013-05-14 00:38:00,46.4,32.0,30.02,NNW,332,17.3,-999.9,57,-99.99,,,-99.99,,2013-05-14 04:38:00,
2013-05-14 00:44:00,46.4,32.0,30.02,NNW,344,9.2,-999.9,57,-99.99,,,-99.99,,2013-05-14 04:44:00,
2013-05-14 00:50:00,46.4,32.0,30.02,NNW,344,9.2,-999.9,57,-99.99,,,-99.99,,2013-05-14 04:50:00,
2013-05-14 01:02:00,46.4,32.0,30.02,NW,324,12.7,-999.9,57,-99.99,,,-99.99,,2013-05-14 05:02:00,
2013-05-14 01:08:00,46.4,32.0,30.02,NW,324,12.7,-999.9,57,-99.99,,,-99.99,,2013-05-14 05:08:00,
2013-05-14 01:52:00,46.4,32.0,30.02,NNW,337,9.2,-999.9,57,-99.99,,,-99.99,,2013-05-14 05:52:00,
2013-05-14 01:58:00,46.4,32.0,30.02,NNW,337,9.2,-999.9,57,-99.99,,,-99.99,,2013-05-14 05:58:00,
2013-05-14 02:22:00,46.4,32.0,30.02,NNW,332,9.2,-999.9,57,-99.99,,,-99.99,,2013-05-14 06:22:00,
2013-05-14 02:28:00,46.4,32.0,30.02,NNW,332,9.2,-999.9,57,-99.99,,,-99.99,,2013-05-14 06:28:00,
2013-05-14 02:34:00,46.4,33.8,30.03,NNW,341,9.2,-999.9,62,-99.99,,,-99.99,,2013-05-14 06:34:00,
2013-05-14 02:40:00,46.4,33.8,30.03,NNW,341,9.2,-999.9,62,-99.99,,,-99.99,,2013-05-14 06:40:00,
2013-05-14 02:46:00,46.4,33.8,30.02,NNW,338,8.1,-999.9,62,-99.99,,,-99.99,,2013-05-14 06:46:00,
2013-05-14 02:52:00,46.4,33.8,30.02,NNW,344,6.9,-999.9,62,-99.99,,,-99.99,,2013-05-14 06:52:00,
2013-05-14 02:58:00,46.4,33.8,30.02,NNW,344,6.9,-999.9,62,-99.99,,,-99.99,,2013-05-14 06:58:00,
2013-05-14 03:12:00,46.4,33.8,30.03,NNW,329,11.5,-999.9,62,-99.99,,,-99.99,,2013-05-14 07:12:00,
2013-05-14 03:18:00,46.4,33.8,30.03,NNW,329,11.5,-999.9,62,-99.99,,,-99.99,,2013-05-14 07:18:00,
2013-05-14 03:42:00,44.6,33.8,30.03,NW,307,12.7,-999.9,66,-99.99,,,-99.99,,2013-05-14 07:42:00,
2013-05-14 03:48:00,44.6,33.8,30.03,NW,307,12.7,-999.9,66,-99.99,,,-99.99,,2013-05-14 07:48:00,
2013-05-14 03:54:00,44.6,33.8,30.03,NW,320,11.5,-999.9,66,-99.99,,,-99.99,,2013-05-14 07:54:00,
2013-05-14 04:00:00,44.6,33.8,30.03,NW,320,11.5,-999.9,66,-99.99,,,-99.99,,2013-05-14 08:00:00,
2013-05-14 04:12:00,44.6,33.8,30.02,NW,315,12.7,-999.9,66,-99.99,,,-99.99,,2013-05-14 08:12:00,
2013-05-14 04:18:00,44.6,33.8,30.02,NW,315,12.7,-999.9,66,-99.99,,,-99.99,,2013-05-14 08:18:00,
2013-05-14 04:24:00,44.6,33.8,30.02,WNW,303,11.5,-999.9,66,-99.99,,,-99.99,,2013-05-14 08:24:00,
2013-05-14 04:30:00,44.6,33.8,30.02,WNW,303,11.5,-999.9,66,-99.99,,,-99.99,,2013-05-14 08:30:00,
2013-05-14 04:36:00,44.6,33.8,30.02,NW,320,11.5,-999.9,66,-99.99,,,-99.99,,2013-05-14 08:36:00,
2013-05-14 04:42:00,44.6,32.0,30.02,NW,311,11.5,-999.9,61,-99.99,,,-99.99,,2013-05-14 08:42:00,
2013-05-14 04:48:00,44.6,32.0,30.02,NW,311,11.5,-999.9,61,-99.99,,,-99.99,,2013-05-14 08:48:00,
2013-05-14 04:54:00,44.6,33.8,30.02,NW,314,12.7,-999.9,66,-99.99,,,-99.99,,2013-05-14 08:54:00,
2013-05-14 05:00:00,44.6,33.8,30.02,NW,314,12.7,-999.9,66,-99.99,,,-99.99,,2013-05-14 09:00:00,
2013-05-14 05:12:00,44.6,32.0,30.02,NNW,333,12.7,-999.9,61,-99.99,,,-99.99,,2013-05-14 09:12:00,
2013-05-14 05:18:00,44.6,32.0,30.02,NNW,333,12.7,-999.9,61,-99.99,,,-99.99,,2013-05-14 09:18:00,
2013-05-14 05:32:00,44.6,32.0,30.02,NNW,337,13.8,-999.9,61,-99.99,,,-99.99,,2013-05-14 09:32:00,
2013-05-14 05:38:00,44.6,32.0,30.02,NNW,337,13.8,-999.9,61,-99.99,,,-99.99,,2013-05-14 09:38:00,
2013-05-14 05:52:00,44.6,32.0,30.03,NNE,19,1.2,-999.9,61,-99.99,,,-99.99,,2013-05-14 09:52:00,
2013-05-14 05:58:00,44.6,32.0,30.03,NNE,19,1.2,-999.9,61,-99.99,,,-99.99,,2013-05-14 09:58:00,
2013-05-14 06:04:00,44.6,32.0,30.03,North,350,11.5,-999.9,61,-99.99,,,-99.99,,2013-05-14 10:04:00,
2013-05-14 06:10:00,44.6,32.0,30.03,North,350,11.5,-999.9,61,-99.99,,,-99.99,,2013-05-14 10:10:00,
2013-05-14 06:16:00,44.6,32.0,30.03,NNW,327,12.7,-999.9,61,-99.99,,,-99.99,,2013-05-14 10:16:00,
2013-05-14 06:22:00,44.6,32.0,30.03,NW,325,18.4,-999.9,61,-99.99,,,-99.99,,2013-05-14 10:22:00,
2013-05-14 06:28:00,44.6,32.0,30.03,NW,325,18.4,-999.9,61,-99.99,,,-99.99,,2013-05-14 10:28:00,
2013-05-14 06:34:00,44.6,30.2,30.03,NNW,338,19.6,-999.9,57,-99.99,,,-99.99,,2013-05-14 10:34:00,
2013-05-14 06:40:00,44.6,30.2,30.03,NNW,338,19.6,-999.9,57,-99.99,,,-99.99,,2013-05-14 10:40:00,
2013-05-14 06:46:00,44.6,30.2,30.03,NNW,329,16.1,-999.9,57,-99.99,,,-99.99,,2013-05-14 10:46:00,
2013-05-14 06:52:00,46.4,32.0,30.03,NNW,335,16.1,-999.9,57,-99.99,,,-99.99,,2013-05-14 10:52:00,
2013-05-14 06:58:00,46.4,32.0,30.03,NNW,335,16.1,-999.9,57,-99.99,,,-99.99,,2013-05-14 10:58:00,
2013-05-14 07:12:00,46.4,32.0,30.03,NW,321,21.9,-999.9,57,-99.99,,,-99.99,,2013-05-14 11:12:00,
2013-05-14 07:18:00,46.4,32.0,30.03,NW,321,21.9,-999.9,57,-99.99,,,-99.99,,2013-05-14 11:18:00,
2013-05-14 07:24:00,46.4,32.0,30.03,NW,322,15.0,-999.9,57,-99.99,,,-99.99,,2013-05-14 11:24:00,
2013-05-14 07:30:00,46.4,32.0,30.03,NW,322,15.0,-999.9,57,-99.99,,,-99.99,,2013-05-14 11:30:00,
2013-05-14 07:36:00,46.4,32.0,30.03,NW,326,16.1,-999.9,57,-99.99,,,-99.99,,2013-05-14 11:36:00,
2013-05-14 07:42:00,46.4,30.2,30.03,NNW,333,18.4,-999.9,53,-99.99,,,-99.99,,2013-05-14 11:42:00,
2013-05-14 07:48:00,46.4,30.2,30.03,NNW,333,18.4,-999.9,53,-99.99,,,-99.99,,2013-05-14 11:48:00,
2013-05-14 08:12:00,48.2,30.2,30.03,North,355,10.4,-999.9,50,-99.99,,,-99.99,,2013-05-14 12:12:00,
2013-05-14 08:18:00,48.2,30.2,30.03,North,355,10.4,-999.9,50,-99.99,,,-99.99,,2013-05-14 12:18:00,
2013-05-14 08:24:00,48.2,30.2,30.02,NNW,342,9.2,-999.9,50,-99.99,,,-99.99,,2013-05-14 12:24:00,
2013-05-14 08:30:00,48.2,30.2,30.02,NNW,342,9.2,-999.9,50,-99.99,,,-99.99,,2013-05-14 12:30:00,
2013-05-14 08:36:00,48.2,30.2,30.02,NW,324,16.1,-999.9,50,-99.99,,,-99.99,,2013-05-14 12:36:00,
2013-05-14 08:52:00,50.0,30.2,30.02,NNW,348,13.8,-999.9,47,-99.99,,,-99.99,,2013-05-14 12:52:00,
2013-05-14 08:58:00,50.0,30.2,30.02,NNW,348,13.8,-999.9,47,-99.99,,,-99.99,,2013-05-14 12:58:00,
2013-05-14 09:12:00,51.8,30.2,30.02,NNW,339,13.8,-999.9,44,-99.99,,,-99.99,,2013-05-14 13:12:00,
2013-05-14 09:18:00,51.8,30.2,30.02,NNW,339,13.8,-999.9,44,-99.99,,,-99.99,,2013-05-14 13:18:00,
2013-05-14 09:24:00,50.0,28.4,30.02,North,2,10.4,-999.9,43,-99.99,,,-99.99,,2013-05-14 13:24:00,
2013-05-14 09:30:00,50.0,28.4,30.02,North,2,10.4,-999.9,43,-99.99,,,-99.99,,2013-05-14 13:30:00,
2013-05-14 09:36:00,51.8,30.2,30.01,NNW,336,11.5,-999.9,44,-99.99,,,-99.99,,2013-05-14 13:36:00,
2013-05-14 09:42:00,51.8,28.4,30.01,NNW,338,9.2,-999.9,41,-99.99,,,-99.99,,2013-05-14 13:42:00,
2013-05-14 09:48:00,51.8,28.4,30.01,NNW,338,9.2,-999.9,41,-99.99,,,-99.99,,2013-05-14 13:48:00,
2013-05-14 10:12:00,53.6,28.4,30.01,NNW,331,11.5,-999.9,38,-99.99,,,-99.99,,2013-05-14 14:12:00,
2013-05-14 10:18:00,53.6,28.4,30.01,NNW,331,11.5,-999.9,38,-99.99,,,-99.99,,2013-05-14 14:18:00,
2013-05-14 10:32:00,53.6,26.6,30.00,WNW,297,15.0,-999.9,35,-99.99,,,-99.99,,2013-05-14 14:32:00,
2013-05-14 10:38:00,53.6,26.6,30.00,WNW,297,15.0,-999.9,35,-99.99,,,-99.99,,2013-05-14 14:38:00,
2013-05-14 10:44:00,53.6,26.6,30.00,NW,318,20.7,-999.9,35,-99.99,,,-99.99,,2013-05-14 14:44:00,
2013-05-14 10:50:00,53.6,26.6,30.00,NW,318,20.7,-999.9,35,-99.99,,,-99.99,,2013-05-14 14:50:00,
2013-05-14 11:12:00,53.6,23.0,30.00,North,359,11.5,-999.9,30,-99.99,,,-99.99,,2013-05-14 15:12:00,
2013-05-14 11:18:00,53.6,23.0,30.00,North,359,11.5,-999.9,30,-99.99,,,-99.99,,2013-05-14 15:18:00,
2013-05-14 11:24:00,55.4,24.8,30.00,WNW,287,9.2,-999.9,31,-99.99,,,-99.99,,2013-05-14 15:24:00,
2013-05-14 11:30:00,55.4,24.8,30.00,WNW,287,9.2,-999.9,31,-99.99,,,-99.99,,2013-05-14 15:30:00,
2013-05-14 11:36:00,55.4,23.0,30.00,West,266,6.9,-999.9,29,-99.99,,,-99.99,,2013-05-14 15:36:00,
2013-05-14 11:52:00,55.4,24.8,29.99,WNW,283,17.3,-999.9,31,-99.99,,,-99.99,,2013-05-14 15:52:00,
2013-05-14 11:58:00,55.4,24.8,29.99,WNW,283,17.3,-999.9,31,-99.99,,,-99.99,,2013-05-14 15:58:00,
2013-05-14 12:12:00,55.4,21.2,29.98,South,181,4.6,-999.9,26,-99.99,,,-99.99,,2013-05-14 16:12:00,
2013-05-14 12:18:00,55.4,21.2,29.98,South,181,4.6,-999.9,26,-99.99,,,-99.99,,2013-05-14 16:18:00,
2013-05-14 12:32:00,57.2,21.2,29.98,WNW,303,16.1,-999.9,25,-99.99,,,-99.99,,2013-05-14 16:32:00,
2013-05-14 12:38:00,57.2,21.2,29.98,WNW,303,16.1,-999.9,25,-99.99,,,-99.99,,2013-05-14 16:38:00,
2013-05-14 12:44:00,57.2,23.0,29.98,West,263,11.5,-999.9,27,-99.99,,,-99.99,,2013-05-14 16:44:00,
2013-05-14 12:50:00,57.2,23.0,29.98,West,263,11.5,-999.9,27,-99.99,,,-99.99,,2013-05-14 16:50:00,
2013-05-14 12:56:00,57.2,19.4,29.98,North,9,11.5,-999.9,23,-99.99,,,-99.99,,2013-05-14 16:56:00,
2013-05-14 13:32:00,57.2,23.0,29.97,West,263,16.1,-999.9,27,-99.99,,,-99.99,,2013-05-14 17:32:00,
2013-05-14 13:38:00,57.2,23.0,29.97,West,263,16.1,-999.9,27,-99.99,,,-99.99,,2013-05-14 17:38:00,
2013-05-14 13:44:00,57.2,21.2,29.97,WNW,291,15.0,-999.9,25,-99.99,,,-99.99,,2013-05-14 17:44:00,
2013-05-14 13:50:00,57.2,21.2,29.97,WNW,291,15.0,-999.9,25,-99.99,,,-99.99,,2013-05-14 17:50:00,
2013-05-14 13:56:00,59.0,23.0,29.98,NNW,332,17.3,-999.9,25,-99.99,,,-99.99,,2013-05-14 17:56:00,
2013-05-14 14:22:00,59.0,21.2,29.96,North,356,19.6,-999.9,23,-99.99,,,-99.99,,2013-05-14 18:22:00,
2013-05-14 14:28:00,59.0,21.2,29.96,North,356,19.6,-999.9,23,-99.99,,,-99.99,,2013-05-14 18:28:00,
2013-05-14 14:34:00,59.0,23.0,29.96,NW,324,6.9,-999.9,25,-99.99,,,-99.99,,2013-05-14 18:34:00,
2013-05-14 14:40:00,59.0,23.0,29.96,NW,324,6.9,-999.9,25,-99.99,,,-99.99,,2013-05-14 18:40:00,
2013-05-14 14:46:00,59.0,21.2,29.96,NNW,347,17.3,-999.9,23,-99.99,,,-99.99,,2013-05-14 18:46:00,
2013-05-14 14:52:00,59.0,23.0,29.96,NNW,346,5.8,-999.9,25,-99.99,,,-99.99,,2013-05-14 18:52:00,
2013-05-14 14:58:00,59.0,23.0,29.96,NNW,346,5.8,-999.9,25,-99.99,,,-99.99,,2013-05-14 18:58:00,
2013-05-14 15:04:00,59.0,19.4,29.95,NW,308,12.7,-999.9,22,-99.99,,,-99.99,,2013-05-14 19:04:00,
2013-05-14 15:10:00,59.0,19.4,29.95,NW,308,12.7,-999.9,22,-99.99,,,-99.99,,2013-05-14 19:10:00,
2013-05-14 15:16:00,59.0,19.4,29.95,NNW,331,8.1,-999.9,22,-99.99,,,-99.99,,2013-05-14 19:16:00,
2013-05-14 15:22:00,59.0,21.2,29.95,North,356,15.0,-999.9,23,-99.99,,,-99.99,,2013-05-14 19:22:00,
2013-05-14 15:28:00,59.0,21.2,29.95,North,356,15.0,-999.9,23,-99.99,,,-99.99,,2013-05-14 19:28:00,
2013-05-14 15:34:00,60.8,21.2,29.94,NNW,347,16.1,-999.9,22,-99.99,,,-99.99,,2013-05-14 19:34:00,
2013-05-14 15:40:00,60.8,21.2,29.94,NNW,347,16.1,-999.9,22,-99.99,,,-99.99,,2013-05-14 19:40:00,
2013-05-14 15:52:00,60.8,23.0,29.94,West,260,4.6,-999.9,23,-99.99,,,-99.99,,2013-05-14 19:52:00,
2013-05-14 15:58:00,60.8,23.0,29.94,West,260,4.6,-999.9,23,-99.99,,,-99.99,,2013-05-14 19:58:00,
2013-05-14 16:04:00,60.8,21.2,29.93,NNW,342,4.6,-999.9,22,-99.99,,,-99.99,,2013-05-14 20:04:00,
2013-05-14 16:10:00,60.8,21.2,29.93,NNW,342,4.6,-999.9,22,-99.99,,,-99.99,,2013-05-14 20:10:00,
2013-05-14 16:22:00,62.6,21.2,29.93,ENE,58,4.6,-999.9,20,-99.99,,,-99.99,,2013-05-14 20:22:00,
2013-05-14 16:28:00,62.6,21.2,29.93,ENE,58,4.6,-999.9,20,-99.99,,,-99.99,,2013-05-14 20:28:00,
2013-05-14 16:34:00,62.6,23.0,29.92,NNW,336,6.9,-999.9,22,-99.99,,,-99.99,,2013-05-14 20:34:00,
2013-05-14 16:40:00,62.6,23.0,29.92,NNW,336,6.9,-999.9,22,-99.99,,,-99.99,,2013-05-14 20:40:00,
2013-05-14 16:52:00,60.8,17.6,29.92,NNW,341,10.4,-999.9,19,-99.99,,,-99.99,,2013-05-14 20:52:00,
2013-05-14 16:58:00,60.8,17.6,29.92,NNW,341,10.4,-999.9,19,-99.99,,,-99.99,,2013-05-14 20:58:00,
2013-05-14 17:12:00,60.8,17.6,29.91,West,277,11.5,-999.9,19,-99.99,,,-99.99,,2013-05-14 21:12:00,
2013-05-14 17:18:00,60.8,17.6,29.91,West,277,11.5,-999.9,19,-99.99,,,-99.99,,2013-05-14 21:18:00,
2013-05-14 17:24:00,62.6,17.6,29.91,West,277,4.6,-999.9,18,-99.99,,,-99.99,,2013-05-14 21:24:00,
2013-05-14 17:30:00,62.6,17.6,29.91,West,277,4.6,-999.9,18,-99.99,,,-99.99,,2013-05-14 21:30:00,
2013-05-14 17:36:00,62.6,17.6,29.91,North,1,4.6,-999.9,18,-99.99,,,-99.99,,2013-05-14 21:36:00,
2013-05-14 17:42:00,62.6,15.8,29.91,NW,319,10.4,-999.9,16,-99.99,,,-99.99,,2013-05-14 21:42:00,
2013-05-14 17:48:00,62.6,15.8,29.91,NW,319,10.4,-999.9,16,-99.99,,,-99.99,,2013-05-14 21:48:00,
2013-05-14 17:54:00,60.8,17.6,29.91,NNW,328,16.1,-999.9,19,-99.99,,,-99.99,,2013-05-14 21:54:00,
2013-05-14 18:00:00,60.8,17.6,29.91,NNW,328,16.1,-999.9,19,-99.99,,,-99.99,,2013-05-14 22:00:00,
2013-05-14 18:06:00,62.6,17.6,29.91,NNW,332,11.5,-999.9,18,-99.99,,,-99.99,,2013-05-14 22:06:00,
2013-05-14 18:12:00,62.6,17.6,29.90,NNW,331,13.8,-999.9,18,-99.99,,,-99.99,,2013-05-14 22:12:00,
2013-05-14 18:18:00,62.6,17.6,29.90,NNW,331,13.8,-999.9,18,-99.99,,,-99.99,,2013-05-14 22:18:00,
2013-05-14 18:24:00,62.6,19.4,29.90,West,262,13.8,-999.9,19,-99.99,,,-99.99,,2013-05-14 22:24:00,
2013-05-14 18:30:00,62.6,19.4,29.90,West,262,13.8,-999.9,19,-99.99,,,-99.99,,2013-05-14 22:30:00,
2013-05-14 18:36:00,62.6,19.4,29.90,WSW,239,3.5,-999.9,19,-99.99,,,-99.99,,2013-05-14 22:36:00,
2013-05-14 18:42:00,62.6,19.4,29.90,West,271,5.8,-999.9,19,-99.99,,,-99.99,,2013-05-14 22:42:00,
2013-05-14 18:48:00,62.6,19.4,29.90,West,271,5.8,-999.9,19,-99.99,,,-99.99,,2013-05-14 22:48:00,
2013-05-14 18:54:00,62.6,19.4,29.91,WNW,299,11.5,-999.9,19,-99.99,,,-99.99,,2013-05-14 22:54:00,
2013-05-14 19:00:00,62.6,19.4,29.91,WNW,299,11.5,-999.9,19,-99.99,,,-99.99,,2013-05-14 23:00:00,
2013-05-14 19:06:00,60.8,17.6,29.92,NW,306,11.5,-999.9,19,-99.99,,,-99.99,,2013-05-14 23:06:00,
2013-05-14 19:12:00,60.8,17.6,29.92,NW,306,11.5,-999.9,19,-99.99,,,-99.99,,2013-05-14 23:12:00,
2013-05-14 19:18:00,60.8,17.6,29.92,NW,306,11.5,-999.9,19,-99.99,,,-99.99,,2013-05-14 23:18:00,
2013-05-14 19:24:00,60.8,17.6,29.92,WNW,299,11.5,-999.9,19,-99.99,,,-99.99,,2013-05-14 23:24:00,
2013-05-14 19:30:00,60.8,17.6,29.92,WNW,299,11.5,-999.9,19,-99.99,,,-99.99,,2013-05-14 23:30:00,
2013-05-14 19:36:00,62.6,19.4,29.92,WNW,297,12.7,-999.9,19,-99.99,,,-99.99,,2013-05-14 23:36:00,
2013-05-14 19:42:00,60.8,17.6,29.92,NNW,334,12.7,-999.9,19,-99.99,,,-99.99,,2013-05-14 23:42:00,
2013-05-14 19:48:00,60.8,17.6,29.92,NNW,334,12.7,-999.9,19,-99.99,,,-99.99,,2013-05-14 23:48:00,
2013-05-14 19:54:00,60.8,17.6,29.92,NW,315,9.2,-999.9,19,-99.99,,,-99.99,,2013-05-14 23:54:00,
2013-05-14 20:00:00,60.8,17.6,29.92,NW,315,9.2,-999.9,19,-99.99,,,-99.99,,2013-05-15 00:00:00,
2013-05-14 20:12:00,60.8,17.6,29.92,NW,305,10.4,-999.9,19,-99.99,,,-99.99,,2013-05-15 00:12:00,
2013-05-14 20:18:00,60.8,17.6,29.92,NW,305,10.4,-999.9,19,-99.99,,,-99.99,,2013-05-15 00:18:00,
2013-05-14 21:12:00,55.4,39.2,29.94,SE,138,6.9,-999.9,54,-99.99,,,-99.99,,2013-05-15 01:12:00,
2013-05-14 21:18:00,55.4,39.2,29.94,SE,138,6.9,-999.9,54,-99.99,,,-99.99,,2013-05-15 01:18:00,
2013-05-14 21:24:00,55.4,41.0,29.94,SE,131,3.5,-999.9,58,-99.99,,,-99.99,,2013-05-15 01:24:00,
2013-05-14 21:30:00,55.4,41.0,29.94,SE,131,3.5,-999.9,58,-99.99,,,-99.99,,2013-05-15 01:30:00,
2013-05-14 21:36:00,55.4,41.0,29.95,SSE,154,5.8,-999.9,58,-99.99,,,-99.99,,2013-05-15 01:36:00,
2013-05-14 21:42:00,55.4,41.0,29.96,SSE,150,5.8,-999.9,58,-99.99,,,-99.99,,2013-05-15 01:42:00,
2013-05-14 21:48:00,55.4,41.0,29.96,SSE,150,5.8,-999.9,58,-99.99,,,-99.99,,2013-05-15 01:48:00,
2013-05-14 21:54:00,55.4,42.8,29.96,SE,141,4.6,-999.9,63,-99.99,,,-99.99,,2013-05-15 01:54:00,
2013-05-14 22:00:00,55.4,42.8,29.96,SE,141,4.6,-999.9,63,-99.99,,,-99.99,,2013-05-15 02:00:00,
2013-05-14 22:06:00,53.6,41.0,29.96,ESE,112,5.8,-999.9,62,-99.99,,,-99.99,,2013-05-15 02:06:00,
2013-05-14 22:12:00,53.6,41.0,29.96,SE,145,6.9,-999.9,62,-99.99,,,-99.99,,2013-05-15 02:12:00,
2013-05-14 22:18:00,53.6,41.0,29.96,SE,145,6.9,-999.9,62,-99.99,,,-99.99,,2013-05-15 02:18:00,
2013-05-14 22:24:00,53.6,41.0,29.97,SE,143,4.6,-999.9,62,-99.99,,,-99.99,,2013-05-15 02:24:00,
2013-05-14 22:30:00,53.6,41.0,29.97,SE,143,4.6,-999.9,62,-99.99,,,-99.99,,2013-05-15 02:30:00,
2013-05-14 22:36:00,53.6,41.0,29.97,SE,135,2.3,-999.9,62,-99.99,,,-99.99,,2013-05-15 02:36:00,
2013-05-14 22:42:00,55.4,41.0,29.97,South,182,4.6,-999.9,58,-99.99,,,-99.99,,2013-05-15 02:42:00,
2013-05-14 22:48:00,55.4,41.0,29.97,South,182,4.6,-999.9,58,-99.99,,,-99.99,,2013-05-15 02:48:00,
2013-05-14 22:54:00,55.4,41.0,29.97,South,179,3.5,-999.9,58,-99.99,,,-99.99,,2013-05-15 02:54:00,
2013-05-14 23:00:00,55.4,41.0,29.97,South,179,3.5,-999.9,58,-99.99,,,-99.99,,2013-05-15 03:00:00,
2013-05-14 23:12:00,55.4,41.0,29.98,South,179,5.8,-999.9,58,-99.99,,,-99.99,,2013-05-15 03:12:00,
2013-05-14 23:18:00,55.4,41.0,29.98,South,179,5.8,-999.9,58,-99.99,,,-99.99,,2013-05-15 03:18:00,
2013-05-14 23:24:00,55.4,41.0,29.97,South,170,6.9,-999.9,58,-99.99,,,-99.99,,2013-05-15 03:24:00,
2013-05-14 23:30:00,55.4,41.0,29.97,South,170,6.9,-999.9,58,-99.99,,,-99.99,,2013-05-15 03:30:00,
2013-05-14 23:36:00,55.4,41.0,29.98,South,191,3.5,-999.9,58,-99.99,,,-99.99,,2013-05-15 03:36:00,
2013-05-14 23:42:00,55.4,39.2,29.98,South,175,4.6,-999.9,54,-99.99,,,-99.99,,2013-05-15 03:42:00,
2013-05-14 23:48:00,55.4,39.2,29.98,South,175,4.6,-999.9,54,-99.99,,,-99.99,,2013-05-15 03:48:00,